DELTA 1 DEB, 42576

Orbit data source: Space-Track

DELTA 1 DEB, 42576 is space debris in SSO originally from a launch on Tue, 06 Nov 1973 UTC launched from the Air Force Western Test Range (AFWTR). Debris objects in space refer to the collection of defunct objects orbiting the Earth. Examples of debris include non-operational satellites, rocket bodies, and fragments generated from explosions, collisions, or faulty payload assembly.

Loading next visibility...
Identifier
42576, 1973-086HQ
Orbit
SSO
Country
Flag of USUS
Related business
Manufacturer
Unknown
Mission
Spacecraft
Bus & Motor
Unknown
Mass
Unknown
Launch date (UTC)
1973-11-06 (52 years ago)
Launch vehicle
Unknown
Launch site
Air Force Western Test Range (AFWTR)
Object type
Payload
Rocket body
Debris
Shape & HBR
Unknown shape, 0.1 m
Radar Cross Section
Small (<0.1 m²)

Expand to show TLE details & history
Last TLE update: 5 days ago

TLE from 5 days ago
0 DELTA 1 DEB
1 42576U 73086HQ  25294.83374024  .00000189  00000-0  91162-3 0  9991
2 42576 102.2319 151.0952 0301329  63.5385   2.9831 12.76435412555064
Epoch: 2025-10-21T20:00Z
TLE epoch observation values (Epoch: 2025-10-21T20:00:35.156Z)
Latitude
63.94219°
Longitude
154.2603°
Altitude
1,133.903 km
Speed
7.401 km/s
True Right ascension
08h 19m 41s
True Declination
63° 48' 47"
Sunlit
Object was in daylight at epoch
Visualization orbit readout
Latitude
Unknown
Longitude
Unknown
Altitude
Unknown
Speed
Unknown
Apparent Right ascension
Unknown
Apparent Declination
Unknown
Sunlit
N/A
Visualization observer readout
Local Sidereal Time
05:00:09
Azimuth
Unknown
Elevation
Unknown
Doppler factor
Unknown
Orbital elements
Apogee altitude
1,586.346 km
Perigee altitude
1,120.401 km
Semi-major axis
7,731.51 km
Eccentricity
0.03013
Inclination
102.2319°
RAAN
151.0952°
Arg. of periapsis
63.5385°
True anomaly
3.16981°
Mean anomaly
2.9831°
Eccentric anomaly
3.07574°
Mean motion
3.19262 °/min
Orbital period
112.76 mins
BSTAR
0.00091162
Loading maneuver chart data...
Computing Atmospheric mass density...
Loading historical data...
Loading historical data...
Loading historical data...
Loading historical data...
Loading historical data...
Loading historical data...
Loading historical data...

Documentation

Showing up to 5 results
|